Volver al catálogo

DELTA 1 DEB

ActivoSSO
NORAD 7027·DEBRIS·🇺🇸 United States

Lanzado Nov 6, 1973 desde Vandenberg Space Force Base

Loading…

Próximos Pases (próximas 24 horas)

TLE

ActualizadoSource: Space-Track

Época: Sep 13, 2026, 22:42 UTC

1  7027U 73086T   26256.94613647 -.00000075  00000-0 -24443-3 0  9995
2  7027 101.8975 145.9255 0054301 242.3372 130.4602 12.35229440375009

Sigue DELTA 1 DEB en tiempo real con AllMySat

Download on the App Store